When you browse on this site, cookies collect data to enhance your experience and personalize the content and advertising you see.
Visit our Privacy Policy to learn more. By continuing to use the site, you agree to this use of cookies and data.
  • In Hungary
  • List of Countries
  • For 7 days
  • Water Temperature
  • Weather Map
  • News
  • Weather Widgets
  • user-avatar
    Login

    Hourly Weather Viterbo

    Today, 7 December, Saturday

    Time Temperature Precipitation Wind Pressure Humidity
    00:00 +10°C° 0.1 mm 1 mps 734 mmHg 94%
    01:00 +10°C° 0 mm 1 mps 734 mmHg 93%
    02:00 +10°C° 0.1 mm 1 mps 734 mmHg 94%
    03:00 +10°C° 0.1 mm 1 mps 734 mmHg 94%
    04:00 +10°C° 0.1 mm 1 mps 734 mmHg 94%
    05:00 +10°C° 0 mm 1 mps 734 mmHg 94%
    06:00 +10°C° 0 mm 1 mps 734 mmHg 94%
    07:00 +9°C° 0 mm 1 mps 734 mmHg 95%
    08:00 +10°C° 0 mm 1 mps 734 mmHg 92%
    09:00 +12°C° 0 mm 1 mps 734 mmHg 89%
    10:00 +13°C° 0 mm 1 mps 734 mmHg 86%
    11:00 +13°C° 0 mm 1 mps 734 mmHg 83%
    12:00 +14°C° 0 mm 2 mps 734 mmHg 80%
    13:00 +15°C° 0 mm 2 mps 734 mmHg 77%
    14:00 +14°C° 0 mm 2 mps 734 mmHg 80%
    15:00 +14°C° 0 mm 2 mps 734 mmHg 84%
    16:00 +13°C° 0 mm 2 mps 733 mmHg 88%
    17:00 +12°C° 0 mm 2 mps 733 mmHg 90%
    18:00 +12°C° 0 mm 2 mps 734 mmHg 93%
    19:00 +10°C° 0 mm 2 mps 734 mmHg 95%
    20:00 +10°C° 0 mm 2 mps 734 mmHg 94%
    21:00 +10°C° 0 mm 2 mps 734 mmHg 93%
    22:00 +10°C° 0 mm 2 mps 734 mmHg 93%
    23:00 +10°C° 0 mm 2 mps 734 mmHg 93%

    Tomorrow, 8 December, Sunday

    Time Temperature Precipitation Wind Pressure Humidity
    00:00 +10°C° 0 mm 2 mps 734 mmHg 93%
    01:00 +11°C° 0 mm 1 mps 735 mmHg 93%
    02:00 +11°C° 0 mm 1 mps 734 mmHg 93%
    03:00 +10°C° 0 mm 1 mps 734 mmHg 93%
    04:00 +10°C° 0 mm 1 mps 734 mmHg 94%
    05:00 +10°C° 0 mm 1 mps 734 mmHg 94%
    06:00 +10°C° 0 mm 1 mps 734 mmHg 95%
    07:00 +10°C° 0 mm 1 mps 734 mmHg 95%
    08:00 +11°C° 0 mm 1 mps 734 mmHg 92%
    09:00 +12°C° 0 mm 2 mps 735 mmHg 89%
    10:00 +13°C° 0 mm 2 mps 735 mmHg 87%
    11:00 +13°C° 0.1 mm 2 mps 735 mmHg 84%
    12:00 +13°C° 0.1 mm 3 mps 734 mmHg 82%
    13:00 +13°C° 0.1 mm 4 mps 734 mmHg 80%
    14:00 +12°C° 0.1 mm 3 mps 734 mmHg 82%
    15:00 +12°C° 0.1 mm 3 mps 733 mmHg 85%
    16:00 +11°C° 0.1 mm 3 mps 733 mmHg 87%
    17:00 +11°C° 0.1 mm 3 mps 733 mmHg 88%
    18:00 +11°C° 0.1 mm 3 mps 733 mmHg 89%
    19:00 +10°C° 0.1 mm 2 mps 733 mmHg 90%
    20:00 +10°C° 0.1 mm 2 mps 732 mmHg 91%
    21:00 +10°C° 0.1 mm 2 mps 732 mmHg 91%
    22:00 +10°C° 0.1 mm 2 mps 732 mmHg 91%
    23:00 +10°C° 0.1 mm 2 mps 732 mmHg 91%

    Day after tomorrow, 9 December, Monday

    Time Temperature Precipitation Wind Pressure Humidity
    00:00 +9°C° 0.1 mm 2 mps 731 mmHg 92%
    01:00 +9°C° 0.1 mm 2 mps 731 mmHg 92%
    02:00 +9°C° 0 mm 2 mps 730 mmHg 93%
    03:00 +9°C° 0 mm 1 mps 730 mmHg 94%
    04:00 +9°C° 0 mm 1 mps 729 mmHg 94%
    05:00 +9°C° 0 mm 1 mps 729 mmHg 94%
    06:00 +8°C° 0 mm 2 mps 729 mmHg 94%
    07:00 +8°C° 0 mm 2 mps 728 mmHg 94%
    08:00 +9°C° 0 mm 2 mps 728 mmHg 91%
    09:00 +10°C° 0 mm 3 mps 728 mmHg 89%
    10:00 +11°C° 0 mm 3 mps 728 mmHg 86%
    11:00 +12°C° 0.1 mm 3 mps 727 mmHg 84%
    12:00 +13°C° 0.1 mm 4 mps 727 mmHg 83%
    13:00 +14°C° 0.1 mm 4 mps 726 mmHg 81%
    14:00 +12°C° 0.3 mm 4 mps 726 mmHg 78%
    15:00 +11°C° 0.3 mm 4 mps 725 mmHg 75%
    16:00 +10°C° 0.3 mm 4 mps 725 mmHg 72%
    17:00 +8°C° 0 mm 4 mps 725 mmHg 75%
    18:00 +9°C° 0 mm 3 mps 725 mmHg 77%
    19:00 +8°C° 0 mm 3 mps 725 mmHg 80%
    20:00 +8°C° 0.1 mm 2 mps 725 mmHg 82%
    21:00 +7°C° 0.1 mm 2 mps 725 mmHg 84%
    22:00 +8°C° 0.1 mm 1 mps 725 mmHg 86%
    23:00 +8°C° 0.2 mm 1 mps 724 mmHg 87%

    10 December, Tuesday

    Time Temperature Precipitation Wind Pressure Humidity
    00:00 +7°C° 0.2 mm 1 mps 724 mmHg 89%
    01:00 +7°C° 0.2 mm 1 mps 724 mmHg 90%
    02:00 +7°C° 0 mm 1 mps 724 mmHg 91%
    03:00 +5°C° 0 mm 2 mps 724 mmHg 92%
    04:00 +5°C° 0 mm 2 mps 724 mmHg 94%
    05:00 +4°C° 0 mm 3 mps 724 mmHg 89%
    06:00 +4°C° 0 mm 4 mps 725 mmHg 85%
    07:00 +3°C° 0 mm 5 mps 725 mmHg 81%
    08:00 +4°C° 0.1 mm 7 mps 726 mmHg 78%
    09:00 +5°C° 0.1 mm 9 mps 727 mmHg 76%
    10:00 +6°C° 0.1 mm 11 mps 728 mmHg 73%
    11:00 +6°C° 0 mm 10 mps 729 mmHg 68%
    12:00 +7°C° 0 mm 10 mps 729 mmHg 64%
    13:00 +8°C° 0 mm 10 mps 729 mmHg 59%
    14:00 +7°C° 0 mm 9 mps 729 mmHg 60%
    15:00 +7°C° 0 mm 9 mps 729 mmHg 60%
    16:00 +6°C° 0 mm 8 mps 730 mmHg 61%
    17:00 +5°C° 0 mm 8 mps 730 mmHg 61%
    18:00 +5°C° 0 mm 8 mps 731 mmHg 62%
    19:00 +4°C° 0 mm 8 mps 731 mmHg 63%
    20:00 +4°C° 0 mm 7 mps 732 mmHg 62%
    21:00 +3°C° 0 mm 7 mps 732 mmHg 60%
    22:00 +3°C° 0 mm 7 mps 732 mmHg 59%
    23:00 +3°C° 0 mm 7 mps 732 mmHg 59%

    11 December, Wednesday

    Time Temperature Precipitation Wind Pressure Humidity
    00:00 +2°C° 0 mm 7 mps 732 mmHg 59%
    01:00 +2°C° 0 mm 7 mps 732 mmHg 59%
    02:00 +2°C° 0 mm 7 mps 732 mmHg 60%
    03:00 +1°C° 0 mm 6 mps 732 mmHg 60%
    04:00 +1°C° 0 mm 6 mps 731 mmHg 61%
    05:00 +1°C° 0 mm 5 mps 731 mmHg 63%
    06:00 0°C° 0 mm 5 mps 731 mmHg 66%
    07:00 0°C° 0 mm 5 mps 731 mmHg 68%
    08:00 +1°C° 0 mm 5 mps 731 mmHg 65%
    09:00 +2°C° 0 mm 5 mps 731 mmHg 63%
    10:00 +3°C° 0 mm 6 mps 732 mmHg 60%
    11:00 +5°C° 0 mm 5 mps 731 mmHg 58%
    12:00 +5°C° 0 mm 5 mps 731 mmHg 57%
    13:00 +6°C° 0 mm 5 mps 730 mmHg 55%
    14:00 +6°C° 0 mm 4 mps 730 mmHg 58%
    15:00 +5°C° 0 mm 3 mps 730 mmHg 61%
    16:00 +5°C° 0 mm 2 mps 729 mmHg 64%
    17:00 +5°C° 0 mm 2 mps 729 mmHg 66%
    18:00 +4°C° 0 mm 2 mps 729 mmHg 68%
    19:00 +4°C° 0 mm 1 mps 729 mmHg 70%
    20:00 +4°C° 0 mm 1 mps 729 mmHg 70%
    21:00 +4°C° 0 mm 1 mps 729 mmHg 70%
    22:00 +3°C° 0 mm 0 mps 729 mmHg 70%
    23:00 +4°C° 0 mm 1 mps 728 mmHg 69%

    12 December, Thursday

    Time Temperature Precipitation Wind Pressure Humidity
    00:00 +4°C° 0 mm 1 mps 728 mmHg 68%
    01:00 +4°C° 0 mm 1 mps 728 mmHg 67%
    02:00 +4°C° 0 mm 1 mps 727 mmHg 68%
    03:00 +4°C° 0 mm 1 mps 727 mmHg 69%
    04:00 +4°C° 0 mm 1 mps 727 mmHg 70%
    05:00 +3°C° 0 mm 1 mps 727 mmHg 70%
    06:00 +3°C° 0 mm 1 mps 727 mmHg 71%
    07:00 +3°C° 0 mm 1 mps 727 mmHg 71%
    08:00 +5°C° 0 mm 1 mps 727 mmHg 68%
    09:00 +5°C° 0 mm 0 mps 727 mmHg 64%
    10:00 +6°C° 0 mm 0 mps 727 mmHg 61%
    11:00 +8°C° 0.2 mm 1 mps 727 mmHg 64%
    12:00 +8°C° 0.2 mm 1 mps 727 mmHg 68%
    13:00 +9°C° 0.2 mm 1 mps 727 mmHg 71%
    14:00 +8°C° 0 mm 1 mps 727 mmHg 74%
    15:00 +8°C° 0 mm 1 mps 728 mmHg 77%
    16:00 +8°C° 0 mm 1 mps 728 mmHg 80%
    17:00 +6°C° 0 mm 2 mps 728 mmHg 84%
    18:00 +5°C° 0 mm 2 mps 728 mmHg 87%
    19:00 +4°C° 0 mm 2 mps 729 mmHg 91%
    20:00 +3°C° 0 mm 2 mps 729 mmHg 92%
    21:00 +2°C° 0 mm 2 mps 729 mmHg 93%
    22:00 +2°C° 0 mm 2 mps 729 mmHg 94%
    23:00 +2°C° 0 mm 1 mps 729 mmHg 92%
    Show more